This demonstration page uses our WeatherBlox Daily Observations layout. Learn more.

Hourly Observations for April 3, 2017

Temp ( °F °C ) Dew Point ( °F °C ) Humidity (%) Winds ( mph kmh ) Pressure ( in mb ) Visibility ( mi km ) Precip ( " mm )
12:15 am 00:15 Cloudy with Fog 41 4.9 40 4.2 95 95 S 3 6 29.74 1007 0.5 0.80467 0 0
12:35 am 00:35 Cloudy with Fog 42 5.4 40 4.7 95 95 Calm 29.74 1007 0.25 0.402335 0 0
12:55 am 00:55 Cloudy with Fog 40 4.7 39 4.1 96 96 Calm 29.74 1007 0.25 0.402335 0 0
1:15 am 01:15 Cloudy with Fog 40 4.4 39 3.8 96 96 Calm 29.74 1007 0.25 0.402335 0 0
1:35 am 01:35 Cloudy with Fog 40 4.5 39 4 97 97 SSW 3 6 29.71 1006 0.5 0.80467 0 0
1:55 am 01:55 Cloudy with Fog 39 4 38 3.5 97 97 Calm 29.71 1006 0.5 0.80467 0 0
2:15 am 02:15 Cloudy with Fog 40 4.2 39 3.7 97 97 SSW 3 6 29.71 1006 0.25 0.402335 0 0
2:35 am 02:35 Cloudy with Fog 40 4.2 39 3.7 97 97 SW 3 6 29.71 1006 0.5 0.80467 0 0
2:55 am 02:55 Cloudy with Mist and Fog 38 3.6 38 3.1 97 97 S 5 7 29.71 1006 1 1.60934 0 0
3:15 am 03:15 Cloudy with Fog 38 3.2 37 2.7 97 97 Calm 29.71 1006 0.25 0.402335 0 0
3:35 am 03:35 Cloudy with Fog 39 3.7 38 3.2 97 97 SSW 5 7 29.71 1006 0.25 0.402335 0 0
3:55 am 03:55 Cloudy with Fog 38 3.2 37 2.8 97 97 Calm 29.71 1006 0.5 0.80467 0 0
4:15 am 04:15 Cloudy with Fog 40 4.2 39 3.8 97 97 S 3 6 29.71 1006 0.25 0.402335 0 0
4:35 am 04:35 Cloudy with Fog 41 5 40 4.6 97 97 Calm 29.68 1005 0.25 0.402335 0 0
4:55 am 04:55 Cloudy with Fog 42 5.5 41 5 97 97 WNW 7 11 29.71 1006 0.25 0.402335 0 0
5:15 am 05:15 Cloudy with Fog 41 5 40 4.6 97 97 WNW 3 6 29.71 1006 5 8.0467 0 0
5:35 am 05:35 Cloudy with Fog 41 5.1 40 4.7 97 97 Calm 29.68 1005 0.25 0.402335 0 0
5:55 am 05:55 Cloudy with Fog 41 5 40 4.5 97 97 Calm 29.68 1005 0.25 0.402335 0 0
6:15 am 06:15 Cloudy with Fog 41 5 40 4.6 97 97 Calm 29.68 1005 0.25 0.402335 0 0
6:35 am 06:35 Cloudy with Fog 41 5.1 40 4.7 97 97 WNW 3 6 29.68 1005 0.25 0.402335 0 0
6:55 am 06:55 Cloudy with Fog 41 4.8 40 4.5 98 98 NW 3 6 29.71 1006 0.5 0.80467 0 0
7:15 am 07:15 Cloudy with Fog 40 4.7 40 4.3 97 97 Calm 29.71 1006 0.5 0.80467 0 0
7:35 am 07:35 Cloudy with Fog 40 4.6 40 4.2 97 97 Calm 29.71 1006 5 8.0467 0 0
7:55 am 07:55 Cloudy with Fog 40 4.3 39 4 98 98 Calm 29.71 1006 5 8.0467 0 0
8:15 am 08:15 Cloudy with Fog 40 4.5 39 4 97 97 NW 3 6 29.68 1005 5 8.0467 0 0
8:35 am 08:35 Cloudy with Fog 42 5.3 41 5 98 98 NW 6 9 29.71 1006 0.25 0.402335 0 0
8:55 am 08:55 Cloudy with Mist and Fog 44 6.6 43 6.2 97 97 NW 8 13 29.68 1005 4 6.43736 0 0
9:15 am 09:15 Partly Cloudy 44 6.5 43 6 97 97 NW 8 13 29.68 1005 10 16.0934 0 0
9:35 am 09:35 Partly Cloudy 44 6.6 43 6.2 97 97 NW 9 15 29.65 1004 10 16.0934 0 0
9:55 am 09:55 Cloudy 44 6.8 44 6.4 97 97 NW 6 9 29.68 1005 10 16.0934 0 0
10:15 am 10:15 Cloudy 44 6.9 44 6.5 97 97 WNW 10 17 29.68 1005 10 16.0934 0 0
10:35 am 10:35 Cloudy 45 7.3 44 6.9 97 97 NW 13 20 29.68 1005 10 16.0934 0 0
10:55 am 10:55 Cloudy 46 7.9 46 7.5 97 97 NW 12 19 29.68 1005 10 16.0934 0 0
11:15 am 11:15 Cloudy 46 7.6 45 7.1 97 97 NW 10 17 29.68 1005 10 16.0934 0 0
11:35 am 11:35 Mostly Cloudy 49 9.6 48 9.1 97 97 N 9 15 29.62 1003 10 16.0934 0 0
11:55 am 11:55 Partly Cloudy 53 11.7 46 7.5 76 76 N 7 11 29.62 1003 10 16.0934 0 0
12:15 pm 12:15 Mostly Cloudy 53 11.5 44 6.7 73 73 N 7 11 29.62 1003 10 16.0934 0 0
12:35 pm 12:35 Cloudy 53 11.6 44 6.8 73 73 NW 10 17 29.65 1004 10 16.0934 0 0
12:55 pm 12:55 Cloudy 53 11.6 45 7.2 75 75 NW 9 15 29.65 1004 10 16.0934 0 0
1:15 pm 13:15 Cloudy 53 11.9 45 7.2 73 73 WNW 12 19 29.65 1004 10 16.0934 0 0
1:35 pm 13:35 Partly Cloudy 56 13.1 45 7.4 69 69 NNW 10 17 29.62 1003 10 16.0934 0 0
1:55 pm 13:55 Mostly Cloudy 56 13.6 46 7.5 67 67 WNW 10 17 29.59 1002 10 16.0934 0 0
2:15 pm 14:15 Cloudy 56 13.2 45 7 66 66 NW 12 19 29.62 1003 10 16.0934 0 0
2:35 pm 14:35 Cloudy 55 12.7 45 7 69 69 NW 13 20 29.62 1003 10 16.0934 0 0
2:55 pm 14:55 Cloudy 55 12.5 45 7 69 69 WNW 15 24 29.65 1004 10 16.0934 0 0
3:15 pm 15:15 Cloudy 54 12.4 44 6.9 69 69 NW 14 22 29.65 1004 10 16.0934 0 0
3:35 pm 15:35 Cloudy 54 12.2 44 6.9 70 70 WNW 16 26 29.65 1004 10 16.0934 0 0
3:55 pm 15:55 Cloudy 53 11.9 44 6.6 70 70 NW 16 26 29.65 1004 10 16.0934 0 0
4:15 pm 16:15 Cloudy 53 11.4 44 6.5 72 72 NNW 15 24 29.65 1004 10 16.0934 0 0
4:35 pm 16:35 Cloudy 51 10.6 43 6.2 74 74 NW 18 30 29.65 1004 10 16.0934 0 0
4:55 pm 16:55 Cloudy 50 9.8 43 6 77 77 NW 20 31 29.68 1005 10 16.0934 0 0
5:15 pm 17:15 Cloudy 49 9.6 42 5.7 77 77 NW 16 26 29.68 1005 10 16.0934 0 0
5:35 pm 17:35 Cloudy 49 9.6 42 5.5 76 76 NW 20 31 29.68 1005 10 16.0934 0 0
5:55 pm 17:55 Cloudy 49 9.2 42 5.5 78 78 NW 21 33 29.74 1007 10 16.0934 0 0
6:15 pm 18:15 Cloudy 48 8.9 41 4.8 76 76 NW 15 24 29.74 1007 10 16.0934 0 0
6:35 pm 18:35 Cloudy 48 8.8 40 4.5 75 75 NNW 16 26 29.74 1007 10 16.0934 0 0
6:55 pm 18:55 Cloudy 48 8.7 40 4.2 74 74 NNW 21 33 29.74 1007 10 16.0934 0 0
7:15 pm 19:15 Mostly Cloudy 47 8.1 39 3.8 75 75 NNW 14 22 29.77 1008 10 16.0934 0 0
7:35 pm 19:35 Cloudy 46 8 38 3.4 73 73 NNW 15 24 29.77 1008 10 16.0934 0 0
7:55 pm 19:55 Cloudy 45 7.2 37 3 75 75 NNW 13 20 29.77 1008 10 16.0934 0 0
8:15 pm 20:15 Cloudy 45 7.1 37 3 75 75 N 18 30 29.77 1008 10 16.0934 0 0
8:35 pm 20:35 Cloudy 44 6.8 37 2.6 75 75 NNW 16 26 29.83 1010 10 16.0934 0 0
8:55 pm 20:55 Cloudy 44 6.7 37 2.8 76 76 NNW 13 20 29.83 1010 10 16.0934 0 0
9:15 pm 21:15 Cloudy 44 6.6 36 2.4 75 75 N 13 20 29.83 1010 10 16.0934 0 0
9:35 pm 21:35 Cloudy 44 6.5 36 2.1 74 74 N 17 28 29.83 1010 10 16.0934 0 0
9:55 pm 21:55 Cloudy 44 6.5 36 2.2 74 74 N 14 22 29.83 1010 10 16.0934 0 0
10:15 pm 22:15 Cloudy 44 6.5 36 2 73 73 NNW 12 19 29.83 1010 10 16.0934 0 0
10:35 pm 22:35 Cloudy 43 6.1 36 2 75 75 N 14 22 29.85 1011 10 16.0934 0 0
10:55 pm 22:55 Partly Cloudy 42 5.3 35 1.5 77 77 N 13 20 29.85 1011 10 16.0934 0 0
11:15 pm 23:15 Mostly Cloudy 40 4.6 35 1.5 81 81 NNW 7 11 29.85 1011 10 16.0934 0 0
11:35 pm 23:35 Partly Cloudy 39 3.7 34 1.2 84 84 NW 5 7 29.88 1012 10 16.0934 0 0
11:55 pm 23:55 Clear 38 3.1 34 1.1 87 87 NW 6 9 29.88 1012 10 16.0934 0 0

Powered by AerisWeather